Starlink 32161

operational
NORAD ID: 60593 Int'l Des: 2024-150 Owner: SPXS Country: US Constellation: starlink
LEOCIRCULAR

About Starlink 32161

Description loading...

Live Position

Loading 3D Globe...

Upcoming Passes

Altitude History

Altitude vs Time

uPlot chart will show altitude changes over time

Two-Line Element Set

1 60593U 24150L 25305.93777888 .00001321 00000-0 56725-4 0 9993
2 60593 53.1606 180.3008 0001450 71.2268 288.8890 15.30190054 68401
Epoch: Nov 1, 2025 • Age: 41 hours

Current Status

Altitude 476.1 km
Velocity 7.63 km/s
Sub-Earth Point 26.99°N, 48.38°E
Launch Date Aug 20, 2024
Age 1.2 years
Type internet

Technical Details

Classification Payload
Mass 730.00 kg
Dry Mass 700.00 kg
Total Mass 730.00 kg
Length 0.30 m
Diameter 4.10 m
Span 29.00 m
Shape Box + pan
Manufacturer SPXS
Bus Type Starlink V2M
Phase Status In Orbit
Owner/State SPXS/US

Large Constellations

Loading constellations...